Location: St. Louis
(38.6270°N, 90.1994°W)
Time: 23:38:00
(UTC-06:00)

Vanguard 1 - Pass Details

Date: 01 December 2021
Orbit: 652 x 3830 km, 34.2° (Epoch: 21 January)

Event Time Altitude Azimuth Distance (km) Brightness Sun altitude
Rises 22:03:04 0° 209° (SSW) 6,713 14.3 -61.7°
Reaches altitude 10° 22:07:33 10° 201° (SSW) 6,055 14.0 -62.5°
Enters shadow 22:08:03 11° 201° (SSW) 5,989 13.9 -62.5°
Maximum altitude 22:25:55 40° 140° (SE) 4,822 - -65.5°
Drops below altitude 10° 22:45:45 10° 81° (E) 6,586 - -68.4°
Exits shadow 22:49:51 - 76° (ENE) 7,188 14.4 -68.9°
Sets 22:50:49 0° 75° (ENE) 7,337 14.4 -69.1°
